Location: Newark
(44.4156°N, 12.1972°E)
Time: 20:10:10
(UTC+00:00)

STARLINK-1072 - Pass Details

Date: 02 February 2020
Orbit: 349 x 350 km, 53.0° (Epoch: 18 February)

Event Time Altitude Azimuth Distance (km) Brightness Sun altitude
Rises 17:59:25 0° 291° (WNW) 2,153 7.8 -17.8°
Reaches altitude 10° 18:01:55 10° 268° (W) 1,307 6.8 -18.2°
Maximum altitude 18:03:48 16° 227° (SW) 1,016 5.7 -18.5°
Drops below altitude 10° 18:05:42 10° 187° (S) 1,300 5.7 -18.9°
Enters shadow 18:06:37 - 175° (S) 1,580 6.0 -19.0°
